Location: Colonia Mina de C?rbuni
(46.1667°N, 22.7167°E)
Time: 05:46:35
(UTC+00:00)

Spot 1 - Pass Details

Date: 04 February 2023
Orbit: 575 x 773 km, 98.8° (Epoch: 21 March)

Event Time Altitude Azimuth Distance (km) Brightness Sun altitude
Exits shadow 17:48:29 67° 17° (NNE) 628 3.9 -22.8°
Maximum altitude 17:49:01 89° 109° (ESE) 582 3.8 -22.9°
Drops below altitude 10° 17:53:04 10° 196° (SSW) 1,883 6.7 -23.6°
Sets 17:55:12 0° 196° (SSW) 2,786 7.6 -24.0°
